Location: Bismarck
(46.7731°N, 100.8200°W)
Time: 10:06:20
(UTC-06:00)

Daily predictions for brighter satellites

Satellite Brightness Start Highest point End
(mag) Time Altitude Azimuth Time Altitude Azimuth Time Altitude Azimuth
Cosmos 1464 Rocket 4.1 18:44:58 10° N 18:51:00 54° ENE 18:56:59 10° SSE
MONITOR-E 4.0 18:50:29 10° SSE 18:53:29 80° ENE 18:56:32 10° N
Cosmos 921 Rocket 3.4 18:49:10 10° N 18:53:33 46° ENE 18:57:52 10° SE
Cosmos 2237 Rocket 4.0 18:49:11 10° NW 18:54:19 37° WSW 18:59:27 10° S
Cosmos 1674 Rocket 3.5 18:51:10 10° N 18:55:32 88° ENE 18:59:51 10° S
Cosmos 2227 Rocket 2.7 18:50:22 10° SW 18:55:59 67° WNW 19:01:39 10° NNE
Cosmos 1420 Rocket 4.1 18:51:09 10° NNW 18:56:28 88° ENE 19:01:47 10° SSE
SPOT 3 Rocket 3.6 18:54:19 10° SSE 18:59:28 69° ENE 19:04:41 10° N
ERS-2 2.8 18:57:07 10° SE 19:00:26 33° ENE 19:03:47 10° N
SL-16 R/B 2.4 18:55:10 10° NNW 19:00:52 78° WSW 19:06:30 10° SSE
MTI 3.7 18:59:58 10° NNE 19:03:10 62° ESE 19:06:20 10° S
Cosmos 1072 Rocket 4.5 18:57:40 10° N 19:03:55 74° E 19:10:12 10° SSE
Cosmos 405 3.4 19:01:14 10° SSW 19:04:43 66° WNW 19:08:15 10° N
Cosmos 1908 Rocket 3.6 19:04:29 10° S 19:08:51 58° E 19:13:14 10° NNE
H-2A R/B 2.8 19:05:18 10° SSE 19:09:09 60° ENE 19:13:00 10° N
Cosmos 2297 Rocket 2.8 19:03:47 10° SW 19:09:22 61° WNW 19:15:01 10° NNE
SeaSat 1 3.4 19:05:25 10° ESE 19:09:39 29° NE 19:13:54 10° N
YAOGAN 1 4.0 19:06:49 10° S 19:10:57 43° W 19:15:06 10° NNW
Cosmos 1184 Rocket 4.4 19:09:59 10° NNE 19:12:11 16° ENE 19:13:29 14° E
Cosmos 1733 Rocket 3.8 19:08:10 10° SSW 19:12:24 56° WNW 19:16:40 10° N
COSMOS 2455 4.0 19:08:16 10° SSE 19:12:32 21° ESE 19:16:50 10° ENE
USA 215 4.4 19:11:44 11° ENE 19:16:33 23° SE 19:21:30 10° S
Aureole 3 3.9 19:11:54 10° S 19:17:20 80° W 19:21:35 10° N
Cosmos 1603 3.8 19:14:12 10° NNW 19:19:47 56° ENE 19:25:17 10° SE
DMSP B5D1-3 4.5 19:14:45 10° NNE 19:19:55 76° ESE 19:25:04 10° S
SJ-6B 3.3 19:17:20 10° SE 19:20:50 36° ENE 19:24:26 10° N
Cosmos 1812 4.0 19:17:30 10° NNW 19:21:14 45° W 19:24:56 10° SSW
SKYMED 2 4.5 19:20:43 10° N 19:24:58 53° WNW 19:29:11 10° SSW
Cosmos 1891 Rocket 4.5 19:21:33 10° N 19:27:49 88° E 19:33:55 10° S
Cosmos 2034 Rocket 4.0 19:22:12 10° N 19:28:38 77° E 19:34:59 10° SSE
Envisat 3.4 19:25:20 10° SE 19:30:05 41° ENE 19:34:51 10° N
Meteor 1-20 Rocket 4.3 19:25:26 10° S 19:31:11 88° WNW 19:37:03 10° N
Meteor 1-13 Rocket 4.4 19:26:00 10° N 19:31:22 48° ENE 19:36:41 10° SSE
ATLAS CENTAUR R/B 2.2 19:28:43 10° NNW 19:32:28 33° NE 19:34:39 21° E
Cosmos 1975 Rocket 3.0 19:28:08 10° N 19:32:35 66° E 19:37:01 10° SSE
HJ-1C 3.5 19:29:18 10° SSE 19:32:38 54° ENE 19:36:00 10° N
CZ-2D R/B 3.6 19:29:43 10° SE 19:33:25 42° ENE 19:37:06 10° N
Okean 1 3.3 19:29:31 10° N 19:33:31 85° W 19:37:29 10° S
NOSS 3-2 (C) 4.4 19:27:50 10° WSW 19:33:43 48° NW 19:40:20 10° NE
Cosmos 2263 Rocket 3.2 19:31:04 10° SSE 19:35:15 22° E 19:37:36 17° ENE
Cosmos 494 Rocket 4.5 19:33:28 10° SSE 19:38:10 36° ESE 19:42:52 10° NE
Cosmos 1634 Rocket 4.4 19:33:08 10° N 19:38:54 39° ENE 19:44:38 10° SE
Cosmos 1602 3.7 19:36:52 10° S 19:40:41 58° E 19:44:31 10° NNE
CRYOSAT 2 4.4 19:37:28 10° NNE 19:42:16 54° E 19:47:01 10° S
Meteor 1-4 Rocket 3.0 19:39:09 10° SSE 19:42:24 36° E 19:45:46 10° NNE
Cosmos 1110 Rocket 4.0 19:37:15 10° NNW 19:42:33 69° ENE 19:47:50 10° SSE
Thor Agena Rocket 3.7 19:40:35 10° NNE 19:45:28 44° E 19:50:16 10° S
CENTAUR R/B 2.8 19:41:24 10° SW 19:47:32 75° NW 19:54:39 10° NE
Cosmos 1269 Rocket 4.0 19:43:05 10° SSW 19:48:22 86° ESE 19:53:41 10° NNE
USA 32 4.1 19:46:17 10° S 19:51:31 81° W 19:56:47 10° N
FREGAT/IRIS 3.5 19:48:54 10° S 19:51:47 50° W 19:54:42 10° NNW
USA 267 3.8 19:48:24 21° ENE 19:52:31 45° NNE 19:58:40 10° NW
EO 1 Del DPAF 4.2 19:49:42 10° N 19:53:25 49° WNW 19:57:06 10° SSW
Resurs 01 Rocket 2.0 19:52:52 26° ESE 19:54:46 41° ENE 19:58:56 10° N
YAOGAN 6 3.4 20:01:23 33° NE 20:01:23 33° NE 20:04:04 10° N
Iridium 4 Rocket 4.3 19:56:39 10° NNW 20:01:17 48° W 20:05:32 10° SSW
Meteor 2-4 Rocket 3.7 19:55:38 10° N 20:01:27 71° ENE 20:07:03 10° SSE
Cosmos 1536 Rocket 3.8 19:58:50 10° N 20:03:04 43° ENE 20:03:55 38° ESE
Cosmos 2227 4.1 19:57:58 10° SSW 20:03:42 81° ESE 20:09:25 10° NNE
Cosmos 1437 Rocket 3.4 20:00:34 10° SSW 20:04:36 59° WNW 20:08:41 10° N
Cosmos 1782 Rocket 4.1 20:02:38 10° SSW 20:07:01 61° W 20:11:24 10° N
Cosmos 1536 4.3 20:04:04 10° SSE 20:10:06 23° NNE 20:11:50 10° NNE
SL-8 R/B 3.7 20:03:21 10° W 20:08:09 77° N 20:09:55 39° ENE
Meteor 1-19 Rocket 4.4 20:04:50 10° NNW 20:10:21 71° W 20:15:53 10° S
Cosmos 1331 Rocket 4.1 20:07:09 10° NNW 20:12:29 78° WSW 20:17:45 10° SSE
CZ-4C R/B 2.9 20:05:47 10° NW 20:12:47 70° NE 20:17:10 28° SE
H-2A R/B 3.8 20:18:36 17° NE 20:18:36 17° NE 20:20:55 10° NNE
USA 186 1.8 20:17:38 70° N 20:17:38 70° N 20:20:40 10° N
BREEZE-M DEB (TANK) 3.1 20:16:57 10° W 20:19:11 32° SSW 20:19:30 31° S
Spot 2 Rocket 3.5 20:17:53 38° SE 20:19:39 60° ENE 20:24:39 10° N
NOAA 11 4.5 20:20:17 42° E 20:20:48 43° ENE 20:25:54 10° N
Meteor 1-11 Rocket 3.6 20:16:40 10° S 20:22:16 85° E 20:28:03 10° NNE
Cosmos 1943 3.2 20:18:33 10° NNW 20:24:15 86° WSW 20:27:32 26° SSE
Alouette 2 Rocket 3.1 20:22:52 10° SSW 20:26:25 87° W 20:30:27 10° NNE
Gbstr 26 Del rocket 2.8 20:27:08 10° SW 20:30:23 64° SSW 20:30:23 64° SSW
Okean 2 Rocket 3.9 20:29:16 10° SSW 20:33:33 52° WNW 20:37:53 10° N
ARGOS Delta rocket 4.2 20:29:30 10° N 20:34:19 63° WNW 20:38:50 10° SSW
Cosmos 2251 Rocket 3.3 20:30:25 10° S 20:35:36 68° ESE 20:36:55 48° NE
Cosmos 1939 Rocket 2.9 20:36:59 76° SSW 20:37:14 81° WSW 20:41:22 10° NNW
Cosmos 2151 Rocket 3.6 20:38:39 10° SSW 20:43:07 77° W 20:47:36 10° N
Cosmos 1302 Rocket 4.1 20:38:48 10° NNW 20:44:00 73° WSW 20:45:36 44° S
SeaSat 1 3.2 20:44:27 26° S 20:46:58 50° WSW 20:51:47 10° NW
COSMOS 2455 2.9 20:51:47 10° SW 20:57:49 77° NW 21:00:54 31° NNE
USA 215 3.1 20:59:06 61° ENE 21:00:17 76° SE 21:06:49 10° SW
Cosmos 2279 Rocket 3.9 20:56:34 10° N 21:02:50 85° W 21:04:23 54° S
BREEZE-M DEB (TANK) 4.1 21:07:21 10° SW 21:11:21 85° SE 21:27:29 10° ENE
ATLAS CENTAUR R/B 2.9 21:07:37 10° NW 21:10:56 34° WSW 21:10:56 34° WSW
Cosmos 2263 Rocket 2.5 21:13:10 10° SW 21:18:41 62° WNW 21:19:30 55° NNW
ARGOS 4.3 21:32:30 36° NNW 21:32:30 36° NNW 21:35:38 10° NNW
Resurs 01 Rocket 3.8 21:30:26 21° WSW 21:31:25 22° W 21:34:55 10° NW
USA 267 3.2 21:35:45 77° WNW 21:35:45 77° WNW 21:41:48 10° NW
CENTAUR R/B 4.3 21:33:54 10° W 21:39:28 28° NNW 21:44:07 15° NNE
H-2A R/B 4.0 21:59:13 26° NNW 21:59:13 26° NNW 22:01:29 10° NNW
CZ-4C R/B 4.1 21:54:45 10° NW 22:01:10 34° WSW 22:02:25 32° SW
